This is the latest recevied weather packets stored in our database for station/object KI5NXU. If no packets are shown the sender has not sent any weather packets the latest 10 day(s).
| Time | Temp. | Humidity | Pressure | Rain* | Wind** | Luminosity | Snow |
|---|---|---|---|---|---|---|---|
| 1788182135 | 26.67° C | 70% | 1016.2 hPa | 0 mm | - | 57 W/m² | - |
| 1788181831 | 26.11° C | 71% | 1016.3 hPa | 0 mm | - | 52 W/m² | - |
| 1788181526 | 25.56° C | 72% | 1015.9 hPa | 0 mm | - | 35 W/m² | - |
| 1788181222 | 25.56° C | 72% | 1016 hPa | 0 mm | - | 32 W/m² | - |
| 1788180925 | 25.56° C | 73% | 1015.9 hPa | 0 mm | - | 30 W/m² | - |
| 1788180610 | 25.56° C | 73% | 1015.8 hPa | 0 mm | - | 27 W/m² | - |
| 1788180307 | 25° C | 74% | 1015.8 hPa | 0 mm | - | 24 W/m² | - |
| 1788180002 | 25° C | 74% | 1015.4 hPa | 0 mm | - | 21 W/m² | - |
| 1788179695 | 25° C | 75% | 1015.8 hPa | 0 mm | - | 18 W/m² | - |
| 1788179402 | 25° C | 75% | 1015.5 hPa | 0 mm | - | 15 W/m² | - |
| 1788179086 | 25° C | 75% | 1015.5 hPa | 0 mm | - | 11 W/m² | - |
| 1788178781 | 25° C | 75% | 1015.2 hPa | 0 mm | - | 8 W/m² | - |
| 1788178475 | 25° C | 75% | 1015.1 hPa | 0 mm | - | 5 W/m² | - |
| 1788178165 | 25° C | 75% | 1015.1 hPa | 0 mm | - | 2 W/m² | - |
| 1788177859 | 25° C | 75% | 1015.1 hPa | 0 mm | - | 0 W/m² | - |
| 1788177554 | 25° C | 75% | 1015.2 hPa | 0 mm | - | 0 W/m² | - |
| 1788177251 | 25° C | 75% | 1015 hPa | 0 mm | - | 0 W/m² | - |
| 1788176950 | 25.56° C | 75% | 1015.1 hPa | 0 mm | - | 0 W/m² | - |
| 1788176649 | 25.56° C | 74% | 1014.9 hPa | 0 mm | - | 0 W/m² | - |
| 1788176344 | 25.56° C | 74% | 1015.1 hPa | 0 mm | - | 0 W/m² | - |
| 1788176039 | 25.56° C | 74% | 1015 hPa | 0 mm | - | 0 W/m² | - |
| 1788175734 | 26.11° C | 73% | 1015 hPa | 0 mm | - | 0 W/m² | - |
| 1788175428 | 26.11° C | 72% | 1015.1 hPa | 0 mm | - | 0 W/m² | - |
| 1788175124 | 26.11° C | 72% | 1015 hPa | 0 mm | - | 0 W/m² | - |
| 1788174820 | 26.11° C | 72% | 1014.8 hPa | 0 mm | - | 0 W/m² | - |
* Rain latest hour (hover to see other rain measurements)
** Current wind speed in m/s (hover to see current wind gust speed)